N738BJ KTEB-KPDX

Flight info

Callsign N738BJ
Flight time 5h 23m
Altitude 38000
Route COATE Q436 RAAKK TWIGS Q438 BERYS BAE HUFFR ABR BIL/N0461F400 HIA J16 DOXIE PDT JKNOX HHOOD6
Aircraft B738/M-SDE2E3FGHIRWXY/LB1

Departure

Time 2026-05-04 13:28
Airport Teterboro Airport (KTEB)

Arrival

Time 2026-05-04 18:51
Airport Portland International Airport (KPDX)
Time Latitude Longitude Altitude Speed Heading
2026-05-04 13:06 40.85831 -74.06056 14 ft 0 kts 142°
2026-05-04 13:25 40.85818 -74.06043 14 ft 6 kts 142°
2026-05-04 13:26 40.85786 -74.05991 14 ft 10 kts 114°
2026-05-04 13:26 40.85778 -74.05870 17 ft 14 kts 92°
2026-05-04 13:26 40.85788 -74.05743 19 ft 14 kts 81°
2026-05-04 13:26 40.85801 -74.05622 19 ft 13 kts 80°
2026-05-04 13:27 40.85813 -74.05529 19 ft 7 kts 79°
2026-05-04 13:27 40.85809 -74.05467 22 ft 7 kts 117°
2026-05-04 13:27 40.85769 -74.05435 19 ft 7 kts 181°
2026-05-04 13:27 40.85729 -74.05471 20 ft 7 kts 229°
2026-05-04 13:28 40.85629 -74.05620 22 ft 53 kts 228°
2026-05-04 13:28 40.85216 -74.06228 17 ft 121 kts 228°
2026-05-04 13:28 40.84537 -74.07223 157 ft 161 kts 227°
2026-05-04 13:28 40.83741 -74.08342 728 ft 178 kts 225°
2026-05-04 13:29 40.82818 -74.09649 1070 ft 199 kts 226°
2026-05-04 13:29 40.81896 -74.10972 1214 ft 192 kts 231°
2026-05-04 13:29 40.81466 -74.12549 1294 ft 184 kts 265°
2026-05-04 13:29 40.81378 -74.14230 1288 ft 183 kts 262°
2026-05-04 13:30 40.81253 -74.15887 1299 ft 180 kts 262°
2026-05-04 13:30 40.81137 -74.17540 1304 ft 182 kts 263°
2026-05-04 13:30 40.81101 -74.19218 1290 ft 186 kts 282°
2026-05-04 13:30 40.81789 -74.20613 1336 ft 183 kts 311°
2026-05-04 13:31 40.82662 -74.21864 1333 ft 190 kts 310°
2026-05-04 13:31 40.83553 -74.23161 1414 ft 196 kts 310°
2026-05-04 13:31 40.84501 -74.24555 1831 ft 213 kts 309°
2026-05-04 13:31 40.85539 -74.26096 2215 ft 229 kts 309°
2026-05-04 13:32 40.86595 -74.27686 2903 ft 234 kts 306°
2026-05-04 13:32 40.87698 -74.29362 3543 ft 245 kts 305°
2026-05-04 13:32 40.88822 -74.31073 4405 ft 247 kts 306°
2026-05-04 13:32 40.89954 -74.32799 5254 ft 249 kts 306°
2026-05-04 13:33 40.91084 -74.34531 6129 ft 248 kts 306°
2026-05-04 13:33 40.92219 -74.36274 6891 ft 252 kts 306°
2026-05-04 13:33 40.93373 -74.38051 7598 ft 257 kts 305°
2026-05-04 13:33 40.94537 -74.39851 8362 ft 260 kts 306°
2026-05-04 13:34 40.95721 -74.41679 9093 ft 263 kts 306°
2026-05-04 13:34 40.96917 -74.43529 9836 ft 266 kts 306°
2026-05-04 13:34 40.98120 -74.45396 10589 ft 267 kts 305°
2026-05-04 13:34 40.99350 -74.47310 11031 ft 283 kts 306°
2026-05-04 13:35 41.00678 -74.49382 11216 ft 307 kts 306°
2026-05-04 13:35 41.03637 -74.53990 11542 ft 349 kts 306°
2026-05-04 13:35 41.05255 -74.56510 11711 ft 368 kts 306°
2026-05-04 13:36 41.06939 -74.59122 12166 ft 376 kts 306°
2026-05-04 13:36 41.08646 -74.61771 12763 ft 379 kts 307°
2026-05-04 13:36 41.10357 -74.64430 13425 ft 381 kts 307°
2026-05-04 13:36 41.12076 -74.67114 14077 ft 383 kts 307°
2026-05-04 13:37 41.13747 -74.69819 14705 ft 385 kts 303°
2026-05-04 13:37 41.15169 -74.72818 15379 ft 384 kts 297°
2026-05-04 13:37 41.16491 -74.75905 16012 ft 386 kts 297°
2026-05-04 13:37 41.17385 -74.78006 16441 ft 388 kts 297°
2026-05-04 13:38 41.19152 -74.82146 17235 ft 391 kts 297°
2026-05-04 13:38 41.20504 -74.85294 17799 ft 394 kts 298°
2026-05-04 13:38 41.21873 -74.88464 18354 ft 396 kts 298°
2026-05-04 13:38 41.23253 -74.91653 18861 ft 400 kts 298°
2026-05-04 13:39 41.24642 -74.94862 19363 ft 403 kts 298°
2026-05-04 13:39 41.26048 -74.98109 19853 ft 406 kts 298°
2026-05-04 13:39 41.27461 -75.01375 20327 ft 409 kts 298°
2026-05-04 13:39 41.28885 -75.04668 20780 ft 412 kts 298°
2026-05-04 13:40 41.30317 -75.07984 21217 ft 415 kts 298°
2026-05-04 13:40 41.31760 -75.11331 21638 ft 418 kts 298°
2026-05-04 13:40 41.33209 -75.14693 22047 ft 420 kts 298°
2026-05-04 13:40 41.34667 -75.18080 22441 ft 423 kts 298°
2026-05-04 13:41 41.36113 -75.21444 22828 ft 426 kts 298°
2026-05-04 13:41 41.37584 -75.24869 23207 ft 428 kts 298°
2026-05-04 13:41 41.39068 -75.28327 23574 ft 431 kts 298°
2026-05-04 13:42 41.42049 -75.35290 24286 ft 435 kts 298°
2026-05-04 13:42 41.43551 -75.38803 24614 ft 437 kts 298°
2026-05-04 13:42 41.45058 -75.42331 24967 ft 439 kts 298°
2026-05-04 13:42 41.46568 -75.45873 25297 ft 440 kts 298°
2026-05-04 13:43 41.48017 -75.49483 25609 ft 441 kts 293°
2026-05-04 13:43 41.49162 -75.53257 26023 ft 439 kts 290°
2026-05-04 13:43 41.50220 -75.57064 26488 ft 436 kts 289°
2026-05-04 13:43 41.51266 -75.60851 26944 ft 434 kts 289°
2026-05-04 13:44 41.52317 -75.64619 27353 ft 433 kts 290°
2026-05-04 13:44 41.53378 -75.68370 27735 ft 433 kts 290°
2026-05-04 13:44 41.54449 -75.72122 28149 ft 431 kts 290°
2026-05-04 13:44 41.55514 -75.75842 28614 ft 428 kts 290°
2026-05-04 13:45 41.56575 -75.79548 29024 ft 427 kts 290°
2026-05-04 13:45 41.57635 -75.83259 29395 ft 426 kts 290°
2026-05-04 13:45 41.58684 -75.86946 29807 ft 424 kts 290°
2026-05-04 13:45 41.59726 -75.90627 30203 ft 423 kts 290°
2026-05-04 13:46 41.60763 -75.94303 30543 ft 423 kts 290°
2026-05-04 13:46 41.61795 -75.97978 30841 ft 423 kts 290°
2026-05-04 13:46 41.62829 -76.01661 31164 ft 423 kts 290°
2026-05-04 13:46 41.63859 -76.05334 31495 ft 422 kts 290°
2026-05-04 13:47 41.64888 -76.09010 31807 ft 422 kts 290°
2026-05-04 13:47 41.65915 -76.12679 32092 ft 422 kts 290°
2026-05-04 13:47 41.66947 -76.16368 32393 ft 422 kts 290°
2026-05-04 13:47 41.67970 -76.20033 32694 ft 421 kts 289°
2026-05-04 13:48 41.68995 -76.23707 32983 ft 421 kts 290°
2026-05-04 13:48 41.70015 -76.27334 33264 ft 421 kts 290°
2026-05-04 13:48 41.71046 -76.30986 33580 ft 420 kts 289°
2026-05-04 13:48 41.72078 -76.34644 33874 ft 419 kts 289°
2026-05-04 13:49 41.73107 -76.38299 34105 ft 420 kts 289°
2026-05-04 13:49 41.74135 -76.41959 34338 ft 420 kts 289°
2026-05-04 13:49 41.75163 -76.45625 34592 ft 420 kts 289°
2026-05-04 13:49 41.76187 -76.49285 34831 ft 420 kts 289°
2026-05-04 13:50 41.77211 -76.52948 35098 ft 419 kts 289°
2026-05-04 13:50 41.78229 -76.56616 35310 ft 420 kts 289°
2026-05-04 13:50 41.79243 -76.60285 35517 ft 420 kts 289°
2026-05-04 13:50 41.80256 -76.63961 35746 ft 420 kts 289°
2026-05-04 13:51 41.81267 -76.67635 35964 ft 420 kts 289°
2026-05-04 13:51 41.82276 -76.71301 36204 ft 419 kts 289°
2026-05-04 13:51 41.83286 -76.74973 36381 ft 420 kts 289°
2026-05-04 13:51 41.84297 -76.78661 36540 ft 422 kts 289°
2026-05-04 13:52 41.86309 -76.86004 37124 ft 416 kts 289°
2026-05-04 13:52 41.87302 -76.89637 37429 ft 413 kts 289°
2026-05-04 13:52 41.88290 -76.93253 37606 ft 413 kts 288°
2026-05-04 13:53 41.89277 -76.96891 37667 ft 416 kts 288°
2026-05-04 13:53 41.90267 -77.00557 37801 ft 417 kts 288°
2026-05-04 13:53 41.91251 -77.04206 37911 ft 417 kts 288°
2026-05-04 13:54 41.94199 -77.15165 37910 ft 417 kts 288°
2026-05-04 13:55 41.97135 -77.26118 37911 ft 414 kts 288°
2026-05-04 13:55 42.00045 -77.37025 37914 ft 413 kts 288°
2026-05-04 13:56 42.01986 -77.44296 37913 ft 413 kts 289°
2026-05-04 13:57 42.04961 -77.55194 37910 ft 415 kts 289°
2026-05-04 13:58 42.08930 -77.69815 37910 ft 417 kts 289°
2026-05-04 13:58 42.11896 -77.80820 37901 ft 419 kts 289°
2026-05-04 13:59 42.13556 -77.87003 37904 ft 419 kts 289°
2026-05-04 14:00 42.16841 -77.99291 37911 ft 419 kts 289°
2026-05-04 14:00 42.19466 -78.09140 37905 ft 419 kts 289°
2026-05-04 14:01 42.21430 -78.16544 37895 ft 419 kts 289°
2026-05-04 14:02 42.24363 -78.27636 37882 ft 418 kts 288°
2026-05-04 14:02 42.26239 -78.35057 37880 ft 417 kts 288°
2026-05-04 14:03 42.28066 -78.42476 37883 ft 416 kts 288°
2026-05-04 14:03 42.29896 -78.49897 37868 ft 416 kts 288°
2026-05-04 14:04 42.32640 -78.61009 37882 ft 415 kts 288°
2026-05-04 14:04 42.34462 -78.68425 37877 ft 415 kts 288°
2026-05-04 14:05 42.37172 -78.79494 37865 ft 415 kts 288°
2026-05-04 14:06 42.38984 -78.86917 37853 ft 415 kts 288°
2026-05-04 14:06 42.40537 -78.94434 37857 ft 415 kts 281°
2026-05-04 14:07 42.41505 -79.02134 37843 ft 415 kts 280°
2026-05-04 14:07 42.42433 -79.09832 37842 ft 414 kts 280°
2026-05-04 14:08 42.43383 -79.17530 37844 ft 414 kts 280°
2026-05-04 14:08 42.44342 -79.25199 37836 ft 413 kts 280°
2026-05-04 14:09 42.45785 -79.36714 37832 ft 414 kts 280°
2026-05-04 14:10 42.47217 -79.48232 37830 ft 413 kts 280°
2026-05-04 14:10 42.48154 -79.55857 37832 ft 412 kts 280°
2026-05-04 14:11 42.49094 -79.63514 37841 ft 413 kts 281°
2026-05-04 14:11 42.50501 -79.75004 37828 ft 412 kts 280°
2026-05-04 14:12 42.51422 -79.82660 37823 ft 411 kts 280°
2026-05-04 14:13 42.52799 -79.94143 37827 ft 412 kts 280°
2026-05-04 14:13 42.53712 -80.01807 37821 ft 412 kts 280°
2026-05-04 14:14 42.54618 -80.09482 37818 ft 413 kts 280°
2026-05-04 14:14 42.55971 -80.20961 37812 ft 413 kts 280°
2026-05-04 14:15 42.57758 -80.36334 37816 ft 412 kts 280°
2026-05-04 14:16 42.59086 -80.47875 37821 ft 413 kts 280°
2026-05-04 14:17 42.60402 -80.59416 37804 ft 412 kts 280°
2026-05-04 14:18 42.61706 -80.70960 37806 ft 412 kts 280°
2026-05-04 14:19 42.63426 -80.86344 37798 ft 412 kts 280°
2026-05-04 14:19 42.64278 -80.94037 37787 ft 412 kts 280°
2026-05-04 14:20 42.65125 -81.01729 37788 ft 411 kts 279°
2026-05-04 14:20 42.65961 -81.09361 37784 ft 411 kts 279°
2026-05-04 14:21 42.67209 -81.20883 37778 ft 411 kts 279°
2026-05-04 14:21 42.68036 -81.28562 37777 ft 410 kts 279°
2026-05-04 14:22 42.68855 -81.36235 37777 ft 410 kts 279°
2026-05-04 14:22 42.69670 -81.43915 37777 ft 410 kts 279°
2026-05-04 14:23 42.70884 -81.55431 37776 ft 410 kts 279°
2026-05-04 14:24 42.71687 -81.63113 37774 ft 410 kts 279°
2026-05-04 14:24 42.72482 -81.70786 37768 ft 410 kts 279°
2026-05-04 14:25 42.73269 -81.78423 37770 ft 410 kts 279°
2026-05-04 14:25 42.74446 -81.89944 37770 ft 410 kts 279°
2026-05-04 14:26 42.75224 -81.97619 37770 ft 410 kts 279°
2026-05-04 14:26 42.75997 -82.05303 37761 ft 409 kts 279°
2026-05-04 14:27 42.76766 -82.12988 37756 ft 410 kts 279°
2026-05-04 14:27 42.77527 -82.20668 37749 ft 410 kts 279°
2026-05-04 14:28 42.78286 -82.28353 37751 ft 409 kts 279°
2026-05-04 14:28 42.79037 -82.36035 37746 ft 409 kts 279°
2026-05-04 14:29 42.80526 -82.51396 37738 ft 409 kts 279°
2026-05-04 14:30 42.81349 -82.59058 37741 ft 408 kts 281°
2026-05-04 14:31 42.82943 -82.70447 37744 ft 407 kts 282°
2026-05-04 14:32 42.85022 -82.85621 37739 ft 407 kts 282°
2026-05-04 14:32 42.86033 -82.93157 37743 ft 407 kts 282°
2026-05-04 14:33 42.87050 -83.00785 37738 ft 407 kts 282°
2026-05-04 14:33 42.88051 -83.08323 37744 ft 406 kts 282°
2026-05-04 14:34 42.89054 -83.15910 37737 ft 406 kts 282°
2026-05-04 14:34 42.90051 -83.23502 37739 ft 407 kts 282°
2026-05-04 14:35 42.91002 -83.31105 37736 ft 407 kts 278°
2026-05-04 14:35 42.91515 -83.38811 37736 ft 408 kts 277°
2026-05-04 14:36 42.91964 -83.46514 37735 ft 407 kts 276°
2026-05-04 14:36 42.92422 -83.54221 37736 ft 407 kts 277°
2026-05-04 14:37 42.92886 -83.61919 37739 ft 407 kts 277°
2026-05-04 14:37 42.93349 -83.69621 37737 ft 407 kts 277°
2026-05-04 14:38 42.93810 -83.77331 37731 ft 407 kts 276°
2026-05-04 14:38 42.94266 -83.85037 37726 ft 407 kts 276°
2026-05-04 14:39 42.94716 -83.92730 37732 ft 407 kts 276°
2026-05-04 14:39 42.95161 -84.00421 37728 ft 407 kts 276°
2026-05-04 14:40 42.95816 -84.11923 37714 ft 407 kts 276°
2026-05-04 14:40 42.96247 -84.19620 37718 ft 406 kts 276°
2026-05-04 14:41 42.96673 -84.27320 37717 ft 406 kts 276°
2026-05-04 14:42 42.97509 -84.42695 37728 ft 406 kts 276°
2026-05-04 14:42 42.97920 -84.50381 37720 ft 406 kts 276°
2026-05-04 14:43 42.98324 -84.58069 37731 ft 406 kts 276°
2026-05-04 14:43 42.98722 -84.65706 37723 ft 406 kts 276°
2026-05-04 14:44 42.99119 -84.73391 37716 ft 405 kts 276°
2026-05-04 14:44 42.99506 -84.81066 37717 ft 405 kts 276°
2026-05-04 14:45 42.99889 -84.88752 37709 ft 405 kts 276°
2026-05-04 14:45 43.00266 -84.96422 37713 ft 405 kts 276°
2026-05-04 14:46 43.00640 -85.04095 37712 ft 405 kts 276°
2026-05-04 14:46 43.01008 -85.11767 37713 ft 405 kts 276°
2026-05-04 14:47 43.01371 -85.19446 37712 ft 405 kts 276°
2026-05-04 14:47 43.01729 -85.27116 37708 ft 404 kts 276°
2026-05-04 14:48 43.02081 -85.34788 37710 ft 404 kts 275°
2026-05-04 14:48 43.02370 -85.41159 37713 ft 404 kts 275°
2026-05-04 14:49 43.02713 -85.48826 37714 ft 404 kts 275°
2026-05-04 14:49 43.03051 -85.56492 37712 ft 404 kts 275°
2026-05-04 14:50 43.03383 -85.64154 37701 ft 404 kts 275°
2026-05-04 14:50 43.03710 -85.71826 37701 ft 404 kts 275°
2026-05-04 14:51 43.04032 -85.79489 37698 ft 404 kts 275°
2026-05-04 14:51 43.04349 -85.87152 37706 ft 403 kts 275°
2026-05-04 14:52 43.04661 -85.94813 37701 ft 403 kts 275°
2026-05-04 14:52 43.04968 -86.02457 37710 ft 403 kts 275°
2026-05-04 14:53 43.05269 -86.10113 37711 ft 403 kts 275°
2026-05-04 14:53 43.05564 -86.17765 37713 ft 403 kts 275°
2026-05-04 14:54 43.05853 -86.25370 37714 ft 403 kts 275°
2026-05-04 14:54 43.06139 -86.33018 37713 ft 403 kts 275°
2026-05-04 14:55 43.06420 -86.40681 37712 ft 403 kts 275°
2026-05-04 14:55 43.06694 -86.48332 37712 ft 403 kts 275°
2026-05-04 14:56 43.06965 -86.55983 37713 ft 403 kts 275°
2026-05-04 14:56 43.07229 -86.63634 37711 ft 403 kts 275°
2026-05-04 14:57 43.07489 -86.71294 37711 ft 403 kts 275°
2026-05-04 14:57 43.07746 -86.78952 37714 ft 403 kts 274°
2026-05-04 14:58 43.07996 -86.86607 37707 ft 403 kts 274°
2026-05-04 14:58 43.08237 -86.94212 37701 ft 403 kts 274°
2026-05-04 14:59 43.08477 -87.01871 37705 ft 404 kts 274°
2026-05-04 15:00 43.08830 -87.13389 37696 ft 404 kts 274°
2026-05-04 15:00 43.09058 -87.21065 37692 ft 404 kts 274°
2026-05-04 15:01 43.09389 -87.32578 37690 ft 404 kts 274°
2026-05-04 15:01 43.09603 -87.40258 37679 ft 404 kts 274°
2026-05-04 15:02 43.09812 -87.47931 37678 ft 403 kts 273°
2026-05-04 15:02 43.10015 -87.55581 37655 ft 401 kts 273°
2026-05-04 15:03 43.10212 -87.63169 37649 ft 398 kts 272°
2026-05-04 15:03 43.10404 -87.70721 37652 ft 396 kts 272°
2026-05-04 15:04 43.10590 -87.78249 37645 ft 395 kts 272°
2026-05-04 15:04 43.10770 -87.85758 37647 ft 394 kts 272°
2026-05-04 15:05 43.10944 -87.93254 37661 ft 394 kts 272°
2026-05-04 15:05 43.11114 -88.00750 37660 ft 394 kts 272°
2026-05-04 15:06 43.11280 -88.08249 37653 ft 394 kts 272°
2026-05-04 15:07 43.11520 -88.19506 37656 ft 395 kts 272°
2026-05-04 15:07 43.12104 -88.26956 37673 ft 395 kts 284°
2026-05-04 15:08 43.14005 -88.33968 37648 ft 398 kts 297°
2026-05-04 15:08 43.16789 -88.40534 37653 ft 399 kts 298°
2026-05-04 15:09 43.19606 -88.47078 37642 ft 399 kts 298°
2026-05-04 15:09 43.22412 -88.53645 37643 ft 399 kts 297°
2026-05-04 15:10 43.26587 -88.63514 37637 ft 398 kts 297°
2026-05-04 15:11 43.30744 -88.73397 37625 ft 398 kts 297°
2026-05-04 15:11 43.33506 -88.79980 37627 ft 398 kts 297°
2026-05-04 15:12 43.36266 -88.86571 37629 ft 398 kts 297°
2026-05-04 15:12 43.39018 -88.93165 37629 ft 397 kts 297°
2026-05-04 15:13 43.41764 -88.99744 37628 ft 397 kts 297°
2026-05-04 15:13 43.44505 -89.06342 37627 ft 397 kts 297°
2026-05-04 15:14 43.47239 -89.12942 37610 ft 397 kts 297°
2026-05-04 15:14 43.49975 -89.19551 37612 ft 397 kts 297°
2026-05-04 15:15 43.52691 -89.26124 37610 ft 397 kts 297°
2026-05-04 15:15 43.55415 -89.32740 37605 ft 397 kts 297°
2026-05-04 15:16 43.59496 -89.42677 37594 ft 397 kts 297°
2026-05-04 15:17 43.63561 -89.52608 37582 ft 396 kts 297°
2026-05-04 15:17 43.67611 -89.62534 37578 ft 395 kts 296°
2026-05-04 15:18 43.70298 -89.69141 37585 ft 394 kts 296°
2026-05-04 15:19 43.74322 -89.79059 37577 ft 394 kts 296°
2026-05-04 15:19 43.78330 -89.88979 37580 ft 394 kts 296°
2026-05-04 15:20 43.81001 -89.95608 37572 ft 394 kts 296°
2026-05-04 15:20 43.83663 -90.02228 37566 ft 393 kts 296°
2026-05-04 15:21 43.86321 -90.08853 37563 ft 393 kts 296°
2026-05-04 15:22 43.90300 -90.18804 37562 ft 393 kts 296°
2026-05-04 15:22 43.94258 -90.28727 37540 ft 394 kts 296°
2026-05-04 15:23 43.96905 -90.35386 37535 ft 394 kts 296°
2026-05-04 15:23 43.99546 -90.42052 37535 ft 393 kts 296°
2026-05-04 15:24 44.04791 -90.55332 37546 ft 393 kts 296°
2026-05-04 15:25 44.07415 -90.61999 37544 ft 393 kts 295°
2026-05-04 15:26 44.11343 -90.72006 37545 ft 392 kts 295°
2026-05-04 15:26 44.15248 -90.81986 37546 ft 391 kts 295°
2026-05-04 15:27 44.19142 -90.91981 37540 ft 391 kts 295°
2026-05-04 15:28 44.23018 -91.01965 37541 ft 390 kts 295°
2026-05-04 15:29 44.26876 -91.11933 37542 ft 389 kts 295°
2026-05-04 15:30 44.35802 -91.35139 37550 ft 387 kts 295°
2026-05-04 15:31 44.39608 -91.45093 37555 ft 387 kts 295°
2026-05-04 15:32 44.45922 -91.61682 37557 ft 386 kts 295°
2026-05-04 15:34 44.52199 -91.78281 37551 ft 386 kts 294°
2026-05-04 15:34 44.55956 -91.88255 37550 ft 385 kts 294°
2026-05-04 15:35 44.59698 -91.98231 37562 ft 386 kts 294°
2026-05-04 15:36 44.63016 -92.07104 37553 ft 385 kts 294°
2026-05-04 15:36 44.65503 -92.13774 37556 ft 385 kts 294°
2026-05-04 15:37 44.67986 -92.20451 37552 ft 385 kts 294°
2026-05-04 15:37 44.70867 -92.28218 37564 ft 385 kts 294°
2026-05-04 15:38 44.72939 -92.33818 37562 ft 385 kts 294°
2026-05-04 15:38 44.75391 -92.40460 37567 ft 385 kts 294°
2026-05-04 15:39 44.77859 -92.47159 37561 ft 385 kts 294°
2026-05-04 15:40 44.81554 -92.57223 37565 ft 386 kts 294°
2026-05-04 15:40 44.84013 -92.63944 37575 ft 386 kts 294°
2026-05-04 15:41 44.86476 -92.70686 37574 ft 387 kts 294°
2026-05-04 15:41 44.88930 -92.77424 37576 ft 387 kts 294°
2026-05-04 15:42 44.91382 -92.84173 37591 ft 386 kts 294°
2026-05-04 15:42 44.93832 -92.90927 37593 ft 386 kts 294°
2026-05-04 15:43 44.96277 -92.97690 37587 ft 387 kts 294°
2026-05-04 15:43 44.98703 -93.04416 37590 ft 387 kts 294°
2026-05-04 15:44 45.01139 -93.11192 37587 ft 387 kts 294°
2026-05-04 15:44 45.03574 -93.17979 37584 ft 387 kts 294°
2026-05-04 15:45 45.06003 -93.24764 37576 ft 387 kts 294°
2026-05-04 15:45 45.08430 -93.31557 37581 ft 387 kts 293°
2026-05-04 15:46 45.10850 -93.38349 37586 ft 386 kts 293°
2026-05-04 15:46 45.13260 -93.45139 37585 ft 385 kts 292°
2026-05-04 15:47 45.14925 -93.52291 37580 ft 382 kts 280°
2026-05-04 15:47 45.15540 -93.59756 37584 ft 381 kts 276°
2026-05-04 15:48 45.16086 -93.67224 37593 ft 382 kts 276°
2026-05-04 15:48 45.16909 -93.78400 37604 ft 382 kts 276°
2026-05-04 15:49 45.17460 -93.85886 37604 ft 382 kts 276°
2026-05-04 15:49 45.18009 -93.93380 37598 ft 383 kts 276°
2026-05-04 15:50 45.18558 -94.00886 37610 ft 382 kts 276°
2026-05-04 15:50 45.19096 -94.08382 37621 ft 382 kts 276°
2026-05-04 15:51 45.19631 -94.15888 37619 ft 383 kts 276°
2026-05-04 15:51 45.20162 -94.23399 37619 ft 383 kts 276°
2026-05-04 15:52 45.20689 -94.30918 37623 ft 383 kts 276°
2026-05-04 15:52 45.21210 -94.38428 37630 ft 383 kts 276°
2026-05-04 15:53 45.21728 -94.45958 37637 ft 383 kts 276°
2026-05-04 15:53 45.22236 -94.53425 37640 ft 383 kts 276°
2026-05-04 15:54 45.22742 -94.60954 37636 ft 383 kts 276°
2026-05-04 15:54 45.23245 -94.68483 37636 ft 383 kts 275°
2026-05-04 15:55 45.23742 -94.76010 37636 ft 383 kts 275°
2026-05-04 15:55 45.24235 -94.83549 37637 ft 384 kts 275°
2026-05-04 15:56 45.24723 -94.91088 37638 ft 384 kts 275°
2026-05-04 15:56 45.25206 -94.98639 37645 ft 384 kts 275°
2026-05-04 15:57 45.25683 -95.06183 37647 ft 384 kts 275°
2026-05-04 15:57 45.26157 -95.13728 37655 ft 384 kts 275°
2026-05-04 15:58 45.26625 -95.21291 37658 ft 385 kts 275°
2026-05-04 15:58 45.27089 -95.28858 37656 ft 385 kts 275°
2026-05-04 15:59 45.27547 -95.36387 37662 ft 385 kts 275°
2026-05-04 15:59 45.28002 -95.43961 37674 ft 385 kts 275°
2026-05-04 16:00 45.28450 -95.51533 37673 ft 385 kts 275°
2026-05-04 16:00 45.28894 -95.59102 37678 ft 385 kts 275°
2026-05-04 16:01 45.29335 -95.66688 37684 ft 386 kts 275°
2026-05-04 16:01 45.29771 -95.74282 37683 ft 386 kts 275°
2026-05-04 16:02 45.30200 -95.81869 37682 ft 386 kts 275°
2026-05-04 16:03 45.30839 -95.93273 37694 ft 386 kts 275°
2026-05-04 16:03 45.31047 -95.97055 37971 ft 383 kts 275°
2026-05-04 16:03 45.31254 -96.00829 38213 ft 382 kts 275°
2026-05-04 16:03 45.31460 -96.04605 38339 ft 385 kts 275°
2026-05-04 16:04 45.31665 -96.08397 38499 ft 386 kts 275°
2026-05-04 16:04 45.32070 -96.16005 38786 ft 388 kts 275°
2026-05-04 16:04 45.32272 -96.19839 38868 ft 390 kts 275°
2026-05-04 16:05 45.32471 -96.23632 39063 ft 389 kts 275°
2026-05-04 16:05 45.32673 -96.27471 39178 ft 391 kts 275°
2026-05-04 16:05 45.33073 -96.35208 39465 ft 392 kts 275°
2026-05-04 16:06 45.33270 -96.39084 39567 ft 394 kts 275°
2026-05-04 16:06 45.33806 -96.49501 39725 ft 397 kts 275°
2026-05-04 16:07 45.34066 -96.54685 39728 ft 397 kts 275°
2026-05-04 16:08 45.34832 -96.70329 39728 ft 396 kts 275°
2026-05-04 16:09 45.35768 -96.89822 39732 ft 394 kts 275°
2026-05-04 16:10 45.36482 -97.05356 39732 ft 393 kts 275°
2026-05-04 16:11 45.37181 -97.20840 39737 ft 393 kts 274°
2026-05-04 16:12 45.38182 -97.44236 39737 ft 396 kts 274°
2026-05-04 16:13 45.38828 -97.59907 39740 ft 397 kts 274°
2026-05-04 16:14 45.39456 -97.75580 39753 ft 397 kts 274°
2026-05-04 16:16 45.40206 -97.95166 39775 ft 397 kts 274°
2026-05-04 16:17 45.40926 -98.14738 39796 ft 396 kts 274°
2026-05-04 16:18 45.41480 -98.30401 39805 ft 396 kts 274°
2026-05-04 16:19 45.42730 -98.49908 39804 ft 396 kts 278°
2026-05-04 16:20 45.44358 -98.69325 39804 ft 395 kts 277°
2026-05-04 16:22 45.45908 -98.88708 39807 ft 395 kts 277°
2026-05-04 16:23 45.47721 -99.12006 39815 ft 393 kts 277°
2026-05-04 16:25 45.49484 -99.35263 39824 ft 393 kts 277°
2026-05-04 16:26 45.51476 -99.62336 39821 ft 393 kts 277°
2026-05-04 16:28 45.52770 -99.80424 39819 ft 393 kts 277°
2026-05-04 16:29 45.54660 -100.07624 39818 ft 395 kts 277°
2026-05-04 16:31 45.55975 -100.27135 39825 ft 395 kts 277°
2026-05-04 16:32 45.57512 -100.50570 39829 ft 395 kts 277°
2026-05-04 16:33 45.58505 -100.66106 39815 ft 394 kts 276°
2026-05-04 16:34 45.59235 -100.77767 39828 ft 393 kts 276°
2026-05-04 16:35 45.60657 -101.01058 39839 ft 392 kts 276°
2026-05-04 16:36 45.61348 -101.12708 39842 ft 392 kts 276°
2026-05-04 16:37 45.62031 -101.24365 39852 ft 393 kts 276°
2026-05-04 16:38 45.62921 -101.39870 39851 ft 393 kts 276°
2026-05-04 16:39 45.64004 -101.59344 39863 ft 393 kts 276°
2026-05-04 16:40 45.64849 -101.74936 39874 ft 394 kts 276°
2026-05-04 16:41 45.65877 -101.94488 39883 ft 395 kts 276°
2026-05-04 16:43 45.66878 -102.14053 39886 ft 395 kts 276°
2026-05-04 16:43 45.67457 -102.25793 39889 ft 395 kts 276°
2026-05-04 16:45 45.68579 -102.49235 39888 ft 395 kts 276°
2026-05-04 16:46 45.69482 -102.68799 39885 ft 394 kts 275°
2026-05-04 16:47 45.70177 -102.84419 39897 ft 393 kts 275°
2026-05-04 16:48 45.70852 -103.00052 39898 ft 394 kts 275°
2026-05-04 16:49 45.71507 -103.15690 39908 ft 394 kts 275°
2026-05-04 16:50 45.72137 -103.31332 39909 ft 394 kts 275°
2026-05-04 16:51 45.72598 -103.43063 39913 ft 394 kts 275°
2026-05-04 16:52 45.73190 -103.58663 39922 ft 394 kts 274°
2026-05-04 16:53 45.73621 -103.70410 39919 ft 394 kts 275°
2026-05-04 16:54 45.74181 -103.86104 39914 ft 395 kts 274°
2026-05-04 16:55 45.74980 -104.09645 39931 ft 394 kts 274°
2026-05-04 16:56 45.75606 -104.29241 39937 ft 394 kts 274°
2026-05-04 16:57 45.75967 -104.41007 39945 ft 394 kts 274°
2026-05-04 16:58 45.76427 -104.56697 39945 ft 394 kts 274°
2026-05-04 17:00 45.77081 -104.80213 39963 ft 395 kts 274°
2026-05-04 17:01 45.77587 -104.99887 39974 ft 396 kts 274°
2026-05-04 17:02 45.77969 -105.15656 39981 ft 396 kts 274°
2026-05-04 17:03 45.78244 -105.27497 39983 ft 397 kts 273°
2026-05-04 17:03 45.78505 -105.39345 39979 ft 397 kts 273°
2026-05-04 17:04 45.78835 -105.55151 39980 ft 397 kts 273°
2026-05-04 17:05 45.79141 -105.70948 39994 ft 396 kts 273°
2026-05-04 17:06 45.79354 -105.82718 39995 ft 396 kts 273°
2026-05-04 17:07 45.79537 -105.93259 39989 ft 395 kts 273°
2026-05-04 17:07 45.79688 -106.02412 39998 ft 395 kts 273°
2026-05-04 17:08 45.79871 -106.14217 40005 ft 395 kts 273°
2026-05-04 17:09 45.79986 -106.22078 40012 ft 395 kts 273°
2026-05-04 17:09 45.80095 -106.29952 40006 ft 395 kts 273°
2026-05-04 17:10 45.80346 -106.49638 40007 ft 396 kts 272°
2026-05-04 17:11 45.80437 -106.57520 40012 ft 396 kts 272°
2026-05-04 17:12 45.80564 -106.69370 40010 ft 397 kts 272°
2026-05-04 17:13 45.80747 -106.89121 40021 ft 398 kts 272°
2026-05-04 17:14 45.80870 -107.05043 40025 ft 400 kts 272°
2026-05-04 17:15 45.80949 -107.17033 40026 ft 402 kts 272°
2026-05-04 17:16 45.81027 -107.31725 40031 ft 403 kts 272°
2026-05-04 17:17 45.81092 -107.47827 40027 ft 404 kts 272°
2026-05-04 17:18 45.81134 -107.63949 40025 ft 404 kts 272°
2026-05-04 17:19 45.81153 -107.80048 40026 ft 403 kts 272°
2026-05-04 17:20 45.81150 -107.96115 40031 ft 403 kts 272°
2026-05-04 17:20 45.81133 -108.08151 40038 ft 402 kts 272°
2026-05-04 17:21 45.81091 -108.24179 40046 ft 402 kts 272°
2026-05-04 17:22 45.81061 -108.32134 40059 ft 402 kts 271°
2026-05-04 17:23 45.80986 -108.48186 40066 ft 403 kts 271°
2026-05-04 17:24 45.80915 -108.60264 40058 ft 404 kts 271°
2026-05-04 17:25 45.81265 -108.76375 40072 ft 405 kts 274°
2026-05-04 17:26 45.81770 -108.92549 40081 ft 407 kts 274°
2026-05-04 17:27 45.82320 -109.12841 40066 ft 410 kts 274°
2026-05-04 17:28 45.82727 -109.28911 40067 ft 412 kts 274°
2026-05-04 17:29 45.83308 -109.53600 40078 ft 414 kts 274°
2026-05-04 17:31 45.83753 -109.74233 40076 ft 415 kts 274°
2026-05-04 17:32 45.84161 -109.94879 40076 ft 415 kts 274°
2026-05-04 17:33 45.84461 -110.11443 40074 ft 415 kts 274°
2026-05-04 17:34 45.84737 -110.27976 40066 ft 415 kts 274°
2026-05-04 17:35 45.85049 -110.48639 40055 ft 414 kts 273°
2026-05-04 17:36 45.85163 -110.56906 40069 ft 415 kts 273°
2026-05-04 17:36 45.85271 -110.65179 40053 ft 415 kts 273°
2026-05-04 17:37 45.85374 -110.73457 40057 ft 415 kts 273°
2026-05-04 17:37 45.85470 -110.81749 40060 ft 416 kts 273°
2026-05-04 17:38 45.85561 -110.90056 40051 ft 417 kts 273°
2026-05-04 17:38 45.85646 -110.98384 40047 ft 418 kts 273°
2026-05-04 17:39 45.85762 -111.10907 40044 ft 419 kts 273°
2026-05-04 17:39 45.85832 -111.19224 40047 ft 420 kts 273°
2026-05-04 17:40 45.85896 -111.27613 40051 ft 421 kts 273°
2026-05-04 17:40 45.85954 -111.36020 40046 ft 422 kts 273°
2026-05-04 17:41 45.86006 -111.44436 40042 ft 423 kts 273°
2026-05-04 17:41 45.86052 -111.52887 40044 ft 424 kts 273°
2026-05-04 17:42 45.86092 -111.61346 40051 ft 424 kts 273°
2026-05-04 17:42 45.86126 -111.69816 40051 ft 425 kts 273°
2026-05-04 17:43 45.86153 -111.78315 40032 ft 426 kts 273°
2026-05-04 17:43 45.86174 -111.86820 40037 ft 427 kts 273°
2026-05-04 17:44 45.86190 -111.95346 40038 ft 428 kts 273°
2026-05-04 17:44 45.86198 -112.03890 40036 ft 428 kts 273°
2026-05-04 17:45 45.86202 -112.12423 40037 ft 428 kts 273°
2026-05-04 17:45 45.86207 -112.20902 40043 ft 427 kts 273°
2026-05-04 17:46 45.86247 -112.29435 40048 ft 427 kts 273°
2026-05-04 17:46 45.86287 -112.37937 40050 ft 427 kts 273°
2026-05-04 17:47 45.86319 -112.46470 40057 ft 426 kts 273°
2026-05-04 17:47 45.86341 -112.54974 40043 ft 427 kts 273°
2026-05-04 17:48 45.86356 -112.63503 40053 ft 427 kts 273°
2026-05-04 17:48 45.86364 -112.72021 40037 ft 427 kts 273°
2026-05-04 17:49 45.86366 -112.80543 40041 ft 427 kts 273°
2026-05-04 17:49 45.86362 -112.89022 40043 ft 428 kts 273°
2026-05-04 17:50 45.86352 -112.97617 40038 ft 429 kts 273°
2026-05-04 17:50 45.86335 -113.06121 40019 ft 430 kts 273°
2026-05-04 17:51 45.86312 -113.14704 40019 ft 430 kts 273°
2026-05-04 17:51 45.86282 -113.23308 40017 ft 432 kts 273°
2026-05-04 17:52 45.86246 -113.31927 40018 ft 432 kts 273°
2026-05-04 17:52 45.86203 -113.40562 40009 ft 434 kts 274°
2026-05-04 17:53 45.86152 -113.49216 40008 ft 434 kts 274°
2026-05-04 17:53 45.86097 -113.57892 40004 ft 435 kts 274°
2026-05-04 17:54 45.86034 -113.66597 40001 ft 437 kts 274°
2026-05-04 17:54 45.85964 -113.75323 39995 ft 438 kts 274°
2026-05-04 17:55 45.85888 -113.84082 39987 ft 439 kts 274°
2026-05-04 17:55 45.85805 -113.92848 39979 ft 440 kts 274°
2026-05-04 17:56 45.85710 -114.01611 39982 ft 439 kts 274°
2026-05-04 17:56 45.85613 -114.10369 39983 ft 439 kts 274°
2026-05-04 17:57 45.85511 -114.19131 39973 ft 439 kts 274°
2026-05-04 17:57 45.85401 -114.27891 39959 ft 439 kts 273°
2026-05-04 17:58 45.85286 -114.36636 39958 ft 439 kts 273°
2026-05-04 17:58 45.85162 -114.45396 39958 ft 439 kts 273°
2026-05-04 17:59 45.85031 -114.54150 39954 ft 439 kts 273°
2026-05-04 18:00 45.84825 -114.67228 39949 ft 439 kts 273°
2026-05-04 18:00 45.84681 -114.75983 39941 ft 439 kts 273°
2026-05-04 18:01 45.84524 -114.84724 39939 ft 439 kts 273°
2026-05-04 18:01 45.84362 -114.93469 39938 ft 439 kts 273°
2026-05-04 18:02 45.84113 -115.06609 39909 ft 440 kts 274°
2026-05-04 18:02 45.83936 -115.15395 39901 ft 441 kts 274°
2026-05-04 18:03 45.83781 -115.22703 39888 ft 442 kts 274°
2026-05-04 18:03 45.83588 -115.31516 39891 ft 442 kts 274°
2026-05-04 18:04 45.83388 -115.40335 39879 ft 443 kts 274°
2026-05-04 18:05 45.83077 -115.53572 39875 ft 443 kts 274°
2026-05-04 18:05 45.82861 -115.62404 39882 ft 443 kts 275°
2026-05-04 18:06 45.82523 -115.75639 39891 ft 442 kts 275°
2026-05-04 18:06 45.82290 -115.84454 39896 ft 443 kts 275°
2026-05-04 18:07 45.82050 -115.93288 39906 ft 445 kts 275°
2026-05-04 18:07 45.81803 -116.02168 39910 ft 446 kts 275°
2026-05-04 18:08 45.81548 -116.11072 39913 ft 448 kts 275°
2026-05-04 18:08 45.81290 -116.19948 39913 ft 448 kts 274°
2026-05-04 18:09 45.80736 -116.37796 39919 ft 449 kts 274°
2026-05-04 18:10 45.80451 -116.46740 39921 ft 449 kts 274°
2026-05-04 18:10 45.80159 -116.55683 39910 ft 449 kts 274°
2026-05-04 18:11 45.79863 -116.64606 39906 ft 448 kts 274°
2026-05-04 18:11 45.79557 -116.73510 39910 ft 447 kts 274°
2026-05-04 18:12 45.79246 -116.82403 39911 ft 447 kts 273°
2026-05-04 18:12 45.78927 -116.91311 39918 ft 447 kts 273°
2026-05-04 18:13 45.78602 -117.00218 39917 ft 447 kts 273°
2026-05-04 18:14 45.78103 -117.13520 39933 ft 448 kts 273°
2026-05-04 18:14 45.77759 -117.22451 39925 ft 449 kts 273°
2026-05-04 18:15 45.77048 -117.40353 39923 ft 451 kts 274°
2026-05-04 18:16 45.76682 -117.49315 39925 ft 451 kts 274°
2026-05-04 18:16 45.76307 -117.58297 39919 ft 452 kts 274°
2026-05-04 18:17 45.75730 -117.71792 39915 ft 453 kts 274°
2026-05-04 18:18 45.75140 -117.85277 39899 ft 452 kts 274°
2026-05-04 18:18 45.74739 -117.94254 39913 ft 451 kts 274°
2026-05-04 18:19 45.74122 -118.07683 39908 ft 451 kts 274°
2026-05-04 18:19 45.73706 -118.16566 39910 ft 450 kts 274°
2026-05-04 18:20 45.73285 -118.25486 39931 ft 450 kts 274°
2026-05-04 18:20 45.72853 -118.34413 39921 ft 449 kts 274°
2026-05-04 18:21 45.72415 -118.43324 39926 ft 449 kts 273°
2026-05-04 18:21 45.71970 -118.52255 39929 ft 451 kts 273°
2026-05-04 18:22 45.71520 -118.61213 39917 ft 453 kts 273°
2026-05-04 18:22 45.71054 -118.70226 39912 ft 455 kts 272°
2026-05-04 18:23 45.70580 -118.79270 39906 ft 457 kts 272°
2026-05-04 18:23 45.70099 -118.88343 39899 ft 458 kts 272°
2026-05-04 18:24 45.69481 -118.97444 39893 ft 463 kts 268°
2026-05-04 18:24 45.68417 -119.06558 39892 ft 466 kts 266°
2026-05-04 18:25 45.67274 -119.15690 39903 ft 466 kts 266°
2026-05-04 18:25 45.66159 -119.24822 39897 ft 467 kts 267°
2026-05-04 18:26 45.65063 -119.33970 39889 ft 467 kts 267°
2026-05-04 18:26 45.63964 -119.43126 39896 ft 467 kts 267°
2026-05-04 18:27 45.62866 -119.52209 39904 ft 466 kts 267°
2026-05-04 18:27 45.62314 -119.56780 39645 ft 470 kts 267°
2026-05-04 18:27 45.61752 -119.61386 39155 ft 470 kts 267°
2026-05-04 18:28 45.61187 -119.65973 38592 ft 469 kts 268°
2026-05-04 18:28 45.60621 -119.70557 38025 ft 468 kts 267°
2026-05-04 18:28 45.60054 -119.75134 37444 ft 468 kts 267°
2026-05-04 18:28 45.59488 -119.79699 36849 ft 467 kts 266°
2026-05-04 18:29 45.58921 -119.84262 36247 ft 467 kts 266°
2026-05-04 18:29 45.58353 -119.88825 35613 ft 467 kts 266°
2026-05-04 18:29 45.57779 -119.93398 34929 ft 468 kts 265°
2026-05-04 18:29 45.57204 -119.97978 34244 ft 470 kts 265°
2026-05-04 18:30 45.56045 -120.07187 32802 ft 473 kts 264°
2026-05-04 18:30 45.55460 -120.11805 32048 ft 474 kts 264°
2026-05-04 18:30 45.54871 -120.16440 31262 ft 474 kts 264°
2026-05-04 18:31 45.54279 -120.21066 30443 ft 475 kts 264°
2026-05-04 18:31 45.53692 -120.25647 29603 ft 475 kts 263°
2026-05-04 18:31 45.53088 -120.30348 28674 ft 476 kts 263°
2026-05-04 18:31 45.52498 -120.34938 27721 ft 477 kts 263°
2026-05-04 18:32 45.51895 -120.39601 26717 ft 478 kts 263°
2026-05-04 18:32 45.51533 -120.44285 25646 ft 476 kts 272°
2026-05-04 18:32 45.51587 -120.49006 24539 ft 476 kts 275°
2026-05-04 18:32 45.51744 -120.53698 23726 ft 470 kts 276°
2026-05-04 18:33 45.51906 -120.58328 22904 ft 465 kts 275°
2026-05-04 18:33 45.52041 -120.62916 22098 ft 460 kts 275°
2026-05-04 18:33 45.52146 -120.67440 21305 ft 455 kts 274°
2026-05-04 18:33 45.52228 -120.71925 20505 ft 450 kts 274°
2026-05-04 18:34 45.52297 -120.76357 19719 ft 445 kts 273°
2026-05-04 18:34 45.52361 -120.80742 18937 ft 440 kts 273°
2026-05-04 18:34 45.52421 -120.85051 18147 ft 435 kts 273°
2026-05-04 18:34 45.52482 -120.89363 17484 ft 428 kts 273°
2026-05-04 18:35 45.52538 -120.93512 17331 ft 409 kts 273°
2026-05-04 18:35 45.52593 -120.97484 17153 ft 393 kts 273°
2026-05-04 18:35 45.52644 -121.01305 16985 ft 378 kts 273°
2026-05-04 18:35 45.52692 -121.04991 16794 ft 366 kts 273°
2026-05-04 18:36 45.52726 -121.08611 16349 ft 363 kts 272°
2026-05-04 18:36 45.52746 -121.12198 15935 ft 359 kts 272°
2026-05-04 18:36 45.52763 -121.15749 15505 ft 358 kts 272°
2026-05-04 18:36 45.52780 -121.19296 15083 ft 356 kts 272°
2026-05-04 18:37 45.52798 -121.22820 14660 ft 354 kts 272°
2026-05-04 18:37 45.52815 -121.26277 14263 ft 352 kts 272°
2026-05-04 18:37 45.52832 -121.29759 13833 ft 351 kts 272°
2026-05-04 18:37 45.52848 -121.33227 13413 ft 349 kts 272°
2026-05-04 18:38 45.52862 -121.36680 13020 ft 346 kts 272°
2026-05-04 18:38 45.52875 -121.40067 12682 ft 340 kts 272°
2026-05-04 18:38 45.52888 -121.43414 12342 ft 334 kts 272°
2026-05-04 18:38 45.52898 -121.46700 12023 ft 329 kts 272°
2026-05-04 18:39 45.52905 -121.49936 11701 ft 324 kts 272°
2026-05-04 18:39 45.52912 -121.53120 11433 ft 321 kts 272°
2026-05-04 18:39 45.52923 -121.56298 11099 ft 319 kts 272°
2026-05-04 18:39 45.52930 -121.59452 10818 ft 317 kts 271°
2026-05-04 18:40 45.52936 -121.62574 10518 ft 312 kts 271°
2026-05-04 18:40 45.52940 -121.65648 10227 ft 308 kts 271°
2026-05-04 18:40 45.52944 -121.68659 9933 ft 297 kts 271°
2026-05-04 18:40 45.52945 -121.71526 9771 ft 282 kts 272°
2026-05-04 18:41 45.53028 -121.74320 9433 ft 280 kts 275°
2026-05-04 18:41 45.53153 -121.77094 9171 ft 280 kts 275°
2026-05-04 18:41 45.53282 -121.79867 8902 ft 281 kts 275°
2026-05-04 18:41 45.53407 -121.82641 8650 ft 280 kts 274°
2026-05-04 18:42 45.53540 -121.85415 8377 ft 280 kts 274°
2026-05-04 18:42 45.53651 -121.88181 8122 ft 279 kts 274°
2026-05-04 18:42 45.53758 -121.90941 7861 ft 277 kts 274°
2026-05-04 18:42 45.53866 -121.93672 7597 ft 275 kts 274°
2026-05-04 18:43 45.53973 -121.96348 7344 ft 272 kts 274°
2026-05-04 18:43 45.54078 -121.99023 7096 ft 268 kts 274°
2026-05-04 18:43 45.54181 -122.01660 6849 ft 265 kts 274°
2026-05-04 18:43 45.54014 -122.04240 6601 ft 260 kts 249°
2026-05-04 18:44 45.53161 -122.06416 6462 ft 245 kts 236°
2026-05-04 18:44 45.52832 -122.07084 6427 ft 240 kts 235°
2026-05-04 18:44 45.51226 -122.10227 6216 ft 234 kts 234°
2026-05-04 18:44 45.50264 -122.12103 6087 ft 234 kts 235°
2026-05-04 18:45 45.49317 -122.13995 5985 ft 235 kts 235°
2026-05-04 18:45 45.48360 -122.15906 5826 ft 238 kts 235°
2026-05-04 18:45 45.47494 -122.17900 5650 ft 237 kts 252°
2026-05-04 18:45 45.47398 -122.20233 5353 ft 238 kts 278°
2026-05-04 18:46 45.47614 -122.22587 4987 ft 242 kts 277°
2026-05-04 18:46 45.47822 -122.24958 4610 ft 240 kts 277°
2026-05-04 18:46 45.48040 -122.27303 4252 ft 238 kts 277°
2026-05-04 18:46 45.48239 -122.29613 4024 ft 229 kts 277°
2026-05-04 18:47 45.48500 -122.31779 3888 ft 217 kts 286°
2026-05-04 18:47 45.49047 -122.33758 3625 ft 213 kts 293°
2026-05-04 18:47 45.49646 -122.35682 3383 ft 210 kts 295°
2026-05-04 18:47 45.50308 -122.37522 3114 ft 206 kts 300°
2026-05-04 18:48 45.51202 -122.38982 3235 ft 194 kts 321°
2026-05-04 18:48 45.52160 -122.40322 3348 ft 196 kts 299°
2026-05-04 18:48 45.52458 -122.42171 3124 ft 187 kts 275°
2026-05-04 18:48 45.52817 -122.43891 2777 ft 181 kts 297°
2026-05-04 18:49 45.53463 -122.45443 2283 ft 183 kts 305°
2026-05-04 18:49 45.54290 -122.46839 1717 ft 187 kts 311°
2026-05-04 18:49 45.55055 -122.48308 1376 ft 177 kts 297°
2026-05-04 18:49 45.55623 -122.49778 1157 ft 163 kts 297°
2026-05-04 18:50 45.56173 -122.51108 974 ft 149 kts 300°
2026-05-04 18:50 45.56681 -122.52324 815 ft 137 kts 298°
2026-05-04 18:50 45.57166 -122.53541 678 ft 142 kts 297°
2026-05-04 18:50 45.57482 -122.54361 575 ft 144 kts 296°
2026-05-04 18:51 45.57946 -122.55612 311 ft 137 kts 295°
2026-05-04 18:51 45.58395 -122.56770 64 ft 130 kts 298°
2026-05-04 18:51 45.58801 -122.57818 30 ft 101 kts 299°
2026-05-04 18:51 45.59022 -122.58413 30 ft 31 kts 285°
2026-05-04 18:52 45.59035 -122.58599 30 ft 13 kts 269°
2026-05-04 18:52 45.59020 -122.58642 29 ft 2 kts 200°
2026-05-04 18:52 45.58997 -122.58628 30 ft 6 kts 139°
2026-05-04 18:52 45.58962 -122.58547 30 ft 12 kts 120°
2026-05-04 18:53 45.58905 -122.58402 30 ft 18 kts 118°
2026-05-04 18:53 45.58842 -122.58245 31 ft 18 kts 120°
2026-05-04 18:53 45.58782 -122.58096 31 ft 17 kts 120°
2026-05-04 18:53 45.58728 -122.57947 31 ft 17 kts 120°
2026-05-04 18:54 45.58673 -122.57809 31 ft 16 kts 120°
2026-05-04 18:54 45.58623 -122.57689 28 ft 10 kts 132°
2026-05-04 18:54 45.58561 -122.57695 30 ft 8 kts 209°
2026-05-04 18:54 45.58510 -122.57690 30 ft 6 kts 173°
2026-05-04 18:55 45.58483 -122.57704 30 ft 1 kts 208°
2026-05-04 18:55 45.58485 -122.57752 29 ft 0 kts 297°